Theta_e
300 291 287 288 288 292 294 295 295 296 298 297 295 294 292 292 293 296 298 300 301 297 295 295 295 298 301 311 317 319 319 320 320 320 321 323 323 323 322 323 323 322 322 324 325 327 328 330 331 331 331 331 331 332 334 336 337 338 339 338 336 336 336 337 336 335 335 334 334 334 334 333 333 333 333 333 336 335 336 337 337 338 339 337 337 338
299 290 290 292 294 294 295 296 296 295 297 296 294 293 292 293 291 296 297 300 301 297 294 295 296 305 310 315 317 319 319 318 319 319 320 320 321 321 320 320 320 321 322 322 322 324 325 326 328 328 329 330 327 329 330 332 333 334 336 337 337 336 336 336 335 335 335 335 335 334 332 334 333 332 333 331 333 333 335 334 334 337 336 334 334 336
291 289 293 295 297 296 296 296 296 295 295 296 293 291 290 291 295 297 299 300 300 297 293 296 302 308 310 313 315 316 316 317 319 319 318 318 317 317 318 318 318 318 318 319 320 321 322 324 325 326 326 327 328 327 328 329 330 331 331 333 335 336 336 336 338 336 334 336 338 337 335 337 336 338 338 337 334 334 334 332 333 336 336 335 334 334
287 290 295 298 297 295 294 295 295 295 295 293 291 289 288 293 291 287 296 299 300 296 294 304 305 306 309 312 313 314 315 315 316 316 315 315 314 314 315 316 316 316 316 316 318 318 320 321 322 323 324 325 326 326 326 327 328 329 330 331 333 335 337 338 337 337 337 337 338 337 338 338 336 335 337 337 337 332 333 333 335 336 335 335 334 335
290 294 298 297 296 295 293 294 294 292 290 294 294 292 292 293 294 293 294 298 299 299 303 304 301 301 305 306 308 312 315 314 315 315 315 315 315 315 315 315 316 315 316 316 317 318 318 319 319 321 322 324 324 324 325 326 327 328 328 330 332 333 335 335 334 334 337 337 336 336 336 336 335 334 334 335 333 334 333 331 332 333 334 334 335 336
293 297 298 296 295 295 293 292 293 293 288 291 295 295 295 296 294 295 298 296 293 292 303 302 290 291 301 305 306 309 310 310 313 312 312 313 313 314 313 313 315 316 317 317 316 317 318 318 319 320 321 321 322 323 325 326 326 326 327 329 330 330 331 331 332 333 334 333 334 333 331 330 328 327 329 329 329 331 333 333 333 333 334 335 335 335
294 298 297 295 294 294 293 292 294 295 289 289 291 297 297 296 296 296 297 294 288 289 300 304 292 285 296 302 304 305 306 307 310 309 310 311 312 313 313 314 314 315 316 317 317 317 317 318 318 319 319 319 320 322 325 325 325 325 326 327 327 328 328 329 329 330 331 330 332 333 333 332 330 328 329 333 334 334 335 336 335 333 331 334 333 333
297 296 295 295 294 293 291 291 295 295 291 287 296 298 297 296 296 296 296 294 290 299 303 303 299 292 290 297 305 306 304 304 305 306 307 308 310 311 313 314 314 315 315 315 315 316 317 317 318 317 319 319 320 322 323 323 324 324 325 326 326 326 327 326 327 327 329 328 330 331 331 332 332 332 332 333 334 334 335 335 335 335 333 333 333 333
296 294 295 293 293 292 290 294 296 297 293 292 297 298 295 297 297 297 295 292 293 297 293 296 301 291 289 296 306 305 301 302 302 303 305 307 309 311 312 313 314 314 315 315 315 315 316 316 317 318 318 320 321 321 321 322 323 323 323 324 323 323 324 324 326 326 327 328 329 328 328 328 330 331 331 333 334 333 335 334 333 334 334 332 331 331
297 297 297 296 293 290 294 296 297 297 293 296 298 299 298 298 297 296 292 293 292 291 287 292 297 286 288 298 300 303 301 300 301 303 305 307 308 309 310 312 313 313 314 314 314 315 316 317 317 318 318 318 320 321 322 322 323 323 322 323 322 321 322 323 324 326 327 327 327 326 326 327 326 328 329 330 330 331 332 332 332 333 333 333 334 333
297 302 302 298 294 295 295 296 298 297 298 299 299 296 295 295 294 293 293 292 289 282 284 293 295 292 282 295 299 298 299 302 302 303 305 307 308 310 311 312 312 312 313 313 313 314 314 316 316 317 316 317 318 319 320 320 321 322 319 320 320 320 321 322 322 324 325 325 326 325 325 325 325 325 325 325 326 328 328 329 329 330 331 332 332 333
298 298 297 298 301 300 298 296 299 299 299 298 294 292 290 289 292 288 289 290 282 278 287 292 294 295 284 289 299 303 305 304 303 302 304 305 307 308 309 311 312 312 312 312 312 312 313 314 314 315 315 315 316 317 317 318 320 318 318 318 317 317 319 319 321 322 322 323 324 324 324 324 323 324 323 323 324 325 326 327 327 328 329 329 331 331
293 294 298 299 303 298 296 293 294 297 296 297 293 290 284 281 283 280 285 281 280 279 287 292 294 290 289 295 301 303 304 304 305 305 305 305 307 308 309 310 311 311 311 311 311 312 312 312 312 313 314 315 315 314 317 317 318 317 316 316 315 314 316 317 318 318 318 317 319 322 322 323 322 321 323 323 323 324 324 325 326 327 327 328 329 329
288 295 296 297 298 300 297 290 287 290 291 293 291 286 283 279 278 274 278 280 281 289 292 292 295 292 296 299 303 303 305 306 306 306 307 307 306 307 308 309 309 310 310 310 310 311 311 312 313 314 314 315 315 315 316 316 316 316 315 315 314 314 316 316 316 317 317 318 319 320 319 319 319 318 320 321 322 323 323 324 324 325 327 328 328 329
280 284 290 295 290 298 297 295 293 292 291 290 294 290 285 284 282 275 278 275 278 281 288 295 290 288 290 294 305 305 306 307 308 308 308 308 308 308 308 308 308 308 308 309 310 310 311 312 313 313 314 313 313 314 314 314 314 313 312 314 313 313 314 315 315 315 316 317 318 317 317 318 320 319 319 319 320 319 319 321 323 324 324 324 325 327
288 286 293 298 296 299 296 298 300 296 292 292 294 293 287 284 287 280 281 282 285 283 284 289 289 298 298 306 306 307 307 307 308 307 307 305 305 305 304 305 306 307 308 309 309 310 311 312 312 312 311 313 313 313 313 314 313 312 313 314 314 313 313 313 314 315 315 315 316 316 316 316 317 319 318 317 317 317 318 319 320 319 320 322 323 324
289 286 295 296 298 297 297 299 299 298 284 289 292 286 289 294 293 284 285 290 282 282 282 291 295 298 304 305 304 305 305 305 306 305 304 304 303 303 302 303 305 307 307 309 309 310 311 312 312 312 311 310 311 311 311 312 313 312 312 312 312 312 312 313 314 314 314 315 315 315 315 315 315 315 314 314 314 314 316 316 316 317 318 319 320 321
284 286 294 294 293 297 299 300 299 300 298 291 288 289 296 297 297 288 280 283 281 278 281 293 290 293 294 288 305 302 302 302 303 302 303 303 303 303 303 304 305 306 308 309 309 310 310 311 311 311 310 311 311 312 311 311 312 312 312 311 310 311 311 312 313 314 314 314 314 314 314 314 314 313 313 314 314 314 313 313 314 315 315 315 317 318
293 284 290 295 296 297 301 300 297 300 300 292 292 297 290 282 285 288 284 278 277 276 282 290 294 294 294 293 299 298 298 299 300 301 301 301 302 302 303 304 305 306 307 307 308 308 309 310 310 309 308 310 311 311 311 311 311 312 311 312 311 311 311 312 313 314 314 314 314 314 313 313 312 313 313 313 313 312 312 312 313 313 313 314 315 315
296 284 287 296 296 297 298 296 287 291 297 298 298 294 296 290 288 282 282 285 283 277 282 286 292 286 297 297 300 298 299 299 299 299 300 301 302 303 303 304 305 305 305 306 307 308 308 309 309 309 308 309 309 310 310 309 309 309 310 310 310 311 311 311 312 312 311 313 312 312 312 312 312 313 312 312 311 310 310 311 312 313 312 312 313 313
289 292 281 290 298 297 288 292 288 288 286 289 290 288 291 293 293 289 292 287 283 278 282 282 282 288 296 303 301 300 300 299 299 300 301 301 302 303 304 304 305 305 306 306 307 307 307 308 307 307 307 308 308 309 308 307 307 308 309 308 309 309 309 310 311 311 311 311 311 311 310 310 311 311 311 310 311 310 309 310 311 312 311 311 311 311
289 288 284 289 291 289 290 295 294 294 293 291 288 287 288 289 285 282 280 291 289 284 280 282 280 291 299 305 306 302 301 301 301 301 301 302 303 303 304 305 305 306 306 306 307 307 306 306 306 306 306 306 305 305 305 305 305 306 307 308 308 308 308 309 310 310 310 310 310 309 309 310 310 310 310 309 309 309 309 308 309 310 310 308 309 309
294 293 288 284 287 289 295 296 298 297 296 295 293 290 292 290 289 283 280 283 289 288 293 290 287 289 300 302 306 303 302 302 301 301 301 302 303 303 304 305 305 305 305 305 305 305 305 303 303 304 304 303 303 303 303 303 304 304 305 307 307 307 307 308 309 310 310 309 308 308 309 309 309 309 308 308 308 308 307 307 308 309 308 307 307 307
308 288 285 289 292 294 298 297 298 298 296 293 294 295 292 288 290 286 284 287 285 287 287 286 285 289 300 304 305 303 302 302 302 302 301 302 303 303 304 304 304 304 304 304 303 303 302 302 303 303 303 303 303 302 302 302 303 304 304 305 306 306 306 307 309 309 309 308 308 307 307 307 307 307 307 307 307 307 307 306 307 308 307 306 306 305
288 289 286 282 284 286 290 293 292 296 295 291 289 292 294 292 293 294 294 295 285 288 291 287 283 288 299 303 301 301 300 300 301 302 303 301 302 303 303 304 304 303 302 301 301 301 302 302 302 302 303 303 303 303 302 302 302 303 303 304 305 306 306 307 308 308 308 307 306 306 306 306 306 306 306 306 307 307 307 306 307 308 307 306 305 305
289 289 287 280 278 277 277 279 279 282 287 290 294 293 294 292 292 290 284 287 283 289 293 287 286 292 298 299 299 299 299 299 301 302 302 302 302 302 302 302 302 301 301 301 301 301 301 301 302 302 302 303 303 303 303 303 302 302 302 303 304 305 306 306 306 307 306 306 306 305 305 305 305 305 305 306 307 307 307 307 307 307 307 306 305 304
291 295 290 284 283 281 282 286 292 291 289 287 290 292 292 293 293 292 289 284 282 287 286 291 292 291 294 295 296 297 298 298 298 300 300 301 302 302 302 302 301 300 300 301 301 301 301 301 301 301 302 302 303 302 302 302 302 302 302 302 303 305 305 305 305 305 305 305 305 304 304 304 304 305 304 305 305 306 306 306 307 307 306 306 305 304
292 287 291 293 291 293 295 296 296 293 289 290 290 290 292 293 293 291 285 284 294 289 283 293 295 292 292 295 296 297 298 298 299 299 300 301 301 301 301 300 302 300 300 300 300 300 299 299 300 300 301 302 302 302 302 302 302 302 301 301 302 304 304 306 304 304 304 304 304 303 303 304 304 304 304 304 304 304 305 305 305 306 306 307 305 304
289 282 292 293 293 297 296 296 299 298 295 291 291 291 292 295 293 289 293 296 293 285 285 293 295 292 294 296 297 298 299 298 299 300 301 302 301 301 300 299 298 299 299 299 299 299 299 299 299 300 300 300 301 300 300 301 301 301 301 301 302 303 303 304 303 303 303 303 302 302 303 303 304 303 303 303 303 303 303 303 304 304 305 305 305 306
291 285 293 294 292 294 295 299 300 297 296 296 293 295 296 296 297 296 297 297 296 292 295 295 294 293 295 296 298 298 300 300 300 302 302 300 300 300 299 298 297 298 298 298 298 298 299 299 299 299 299 298 299 299 300 300 300 301 300 300 301 302 303 303 302 302 301 301 301 302 302 303 303 302 302 302 302 302 302 302 303 303 302 303 303 304
291 285 294 295 289 292 296 298 298 297 295 293 295 297 298 298 298 298 296 295 295 294 294 294 292 291 296 298 298 299 300 301 301 300 300 300 300 299 298 297 297 297 297 297 297 298 298 299 298 299 299 299 299 299 300 300 300 300 300 300 301 301 302 302 301 301 300 301 301 301 301 301 301 301 301 301 301 301 301 302 302 302 302 302 302 302
294 289 298 293 283 287 296 296 295 295 293 292 291 292 294 295 293 294 292 295 293 291 292 291 289 288 294 297 298 298 298 298 298 299 299 299 298 297 297 296 296 296 297 297 297 297 298 298 298 299 299 299 299 300 299 299 300 299 299 299 300 301 301 301 300 300 300 300 300 301 300 300 300 300 300 300 300 300 300 300 301 301 302 301 301 301
291 290 285 285 284 284 294 296 294 292 288 285 286 290 292 296 295 294 295 296 296 295 290 288 289 294 295 297 295 295 297 297 297 298 297 297 297 297 297 296 296 296 296 297 297 298 297 297 298 298 299 299 299 299 300 300 299 299 299 299 300 301 300 299 299 299 299 299 299 299 300 300 299 299 299 299 299 299 299 299 299 299 300 300 301 301
295 294 288 291 282 283 292 294 293 285 280 283 291 296 296 293 292 289 288 290 292 294 291 295 294 295 295 295 294 294 295 296 297 297 298 297 297 297 297 297 297 297 296 296 297 297 297 298 298 298 298 298 299 299 300 301 300 299 300 300 299 299 299 298 298 298 298 298 298 299 299 299 299 298 298 298 298 297 298 298 298 298 299 299 300 299
294 292 287 289 282 284 288 287 284 279 281 291 296 298 297 295 294 291 291 292 292 294 294 293 294 294 295 296 296 296 297 297 298 297 297 298 298 297 297 297 297 296 295 296 296 297 297 297 297 297 297 297 298 298 299 299 299 299 299 299 298 298 298 297 297 297 297 297 298 298 298 298 298 298 297 296 296 296 296 296 297 297 298 298 299 298
288 289 286 284 284 285 284 284 280 280 290 295 295 296 298 297 295 293 290 292 293 293 294 292 293 294 295 296 296 297 296 296 297 297 298 299 299 298 297 296 296 296 295 296 295 295 297 297 297 296 297 298 298 298 298 298 298 298 298 298 298 297 297 297 296 296 296 296 297 297 297 297 296 297 296 295 295 294 294 295 295 296 297 298 298 299
296 293 288 286 288 282 283 282 283 289 291 292 290 292 294 290 294 291 285 288 293 294 293 292 294 294 295 295 295 295 296 295 293 294 298 299 299 299 298 297 297 296 296 296 297 297 298 298 298 298 298 297 297 297 297 298 298 297 297 297 297 296 296 296 295 295 296 296 296 296 296 296 295 296 295 295 294 293 293 294 294 295 297 296 296 296
300 288 290 287 283 285 283 282 283 283 281 286 293 298 301 301 298 296 291 287 295 295 295 294 293 293 293 294 294 294 295 292 288 289 295 298 298 297 297 297 297 297 297 297 297 297 297 297 297 298 297 297 297 297 297 297 297 296 296 296 296 295 295 295 295 295 295 295 295 296 295 295 294 294 295 294 294 293 293 294 294 295 296 295 295 295
300 297 292 289 286 285 283 282 281 280 282 288 292 298 300 299 298 297 289 284 292 294 295 294 293 293 293 293 293 294 291 287 287 289 294 296 297 297 296 296 297 297 296 296 295 295 296 297 297 298 297 296 296 297 297 297 297 296 295 295 295 295 294 294 294 294 294 295 295 295 295 295 295 294 294 294 294 294 293 293 294 294 295 295 295 295
294 288 287 287 285 284 284 282 281 284 282 290 295 297 298 300 300 293 282 283 291 294 295 294 293 293 293 294 294 292 290 286 287 290 295 296 296 297 296 295 295 295 295 296 296 296 297 298 297 296 295 295 295 296 297 297 298 297 296 295 294 294 293 294 294 294 294 295 296 295 295 295 295 295 294 294 293 294 293 293 293 293 293 293 293 293
286 285 285 283 283 283 284 282 285 286 291 296 297 299 300 302 296 283 281 284 293 295 295 295 294 294 294 293 293 289 291 292 293 294 296 297 297 297 297 297 295 295 295 295 296 297 295 296 296 295 295 296 296 297 297 297 296 296 295 294 294 294 294 294 295 295 295 294 295 295 295 294 295 295 294 294 294 294 294 293 292 292 292 292 292 291
286 285 286 285 284 283 283 283 283 286 292 299 299 302 302 296 283 283 289 295 295 294 295 295 294 295 294 293 293 292 293 295 296 296 296 296 296 296 296 295 294 294 294 296 296 296 295 295 295 295 295 296 297 297 296 296 296 295 294 293 293 294 294 295 294 294 294 293 294 295 295 294 295 297 297 295 295 293 293 293 293 292 291 291 291 291
287 284 284 284 286 285 284 281 281 281 289 300 300 298 298 287 285 292 294 295 296 295 295 295 295 294 295 294 294 294 294 295 296 296 296 296 295 294 294 294 293 293 293 294 294 296 296 295 295 295 295 296 296 296 296 295 295 294 294 294 294 295 295 295 295 295 295 294 294 295 295 294 295 296 297 295 295 293 292 292 292 292 292 291 290 290
294 284 283 283 287 283 281 280 281 286 294 301 297 287 294 293 295 295 295 292 295 295 294 294 294 295 295 294 293 294 294 295 295 296 296 295 294 293 293 294 294 295 295 296 295 295 296 295 295 295 294 295 295 296 295 295 295 295 294 294 295 295 295 295 295 294 294 294 294 293 294 295 296 295 294 294 294 293 292 292 292 291 291 290 290 289
294 290 289 285 288 285 283 285 291 295 296 298 298 296 296 297 297 296 296 295 294 295 296 294 294 296 296 295 294 294 294 295 294 295 295 294 293 293 292 293 294 294 294 293 294 295 295 294 293 293 294 294 295 295 295 295 295 294 293 296 295 295 295 294 294 294 293 293 293 293 294 294 294 294 293 293 293 293 293 292 291 290 290 290 289 289
297 296 296 292 288 294 295 294 296 296 296 296 298 299 297 297 298 297 296 295 295 296 296 295 296 296 296 296 294 294 294 294 294 295 295 294 293 294 295 294 294 293 294 294 294 294 294 294 293 293 292 293 294 295 295 296 295 294 295 296 296 295 295 295 294 294 293 293 293 294 294 293 294 294 294 294 293 293 292 292 291 290 289 288 288 288
296 297 294 289 293 290 285 294 294 294 296 297 296 298 298 298 298 298 297 297 297 298 298 297 296 295 295 296 295 294 294 295 295 295 295 293 293 293 294 293 293 293 293 293 293 294 293 293 293 293 293 293 293 294 295 295 296 296 295 295 296 296 296 295 294 294 293 292 293 293 292 293 292 293 293 293 293 294 294 291 290 289 288 287 287 287
289 298 292 291 290 285 287 294 296 298 297 297 297 296 296 297 298 298 298 298 298 298 297 296 296 295 296 294 294 294 294 295 295 294 293 293 293 293 293 292 292 293 293 293 293 293 292 292 292 293 293 294 294 294 295 296 295 297 296 296 296 295 295 295 294 293 292 292 292 293 292 292 291 293 293 292 292 291 291 292 291 288 287 286 287 287
294 296 285 291 288 292 295 296 297 297 297 297 297 296 297 297 298 298 299 298 298 297 296 296 297 296 295 295 295 295 295 295 294 293 293 293 293 292 292 292 293 293 293 293 293 293 292 292 293 293 294 294 294 295 295 295 295 297 295 295 295 295 295 293 293 293 293 293 292 293 292 293 291 292 293 292 291 290 290 289 291 289 288 287 286 287
293 288 293 291 287 287 288 291 295 289 288 293 295 297 297 298 298 298 298 298 297 296 296 295 295 296 296 297 296 296 294 293 292 293 293 292 292 292 292 293 293 292 293 293 294 294 294 294 293 293 293 293 294 295 295 295 295 296 296 296 296 295 294 293 293 292 292 292 292 293 292 293 292 293 292 292 290 290 290 288 290 290 288 287 290 289
291 292 291 287 287 286 292 295 294 295 295 295 296 298 299 299 298 297 296 296 296 297 296 295 294 295 296 297 297 295 293 293 292 293 292 291 292 292 293 293 293 292 292 293 293 293 293 293 294 293 293 294 294 295 295 295 295 295 295 296 296 296 294 293 293 292 292 293 292 292 293 292 291 292 292 292 290 291 289 289 289 289 290 290 290 289
Wind_Speed
4 7 6 8 7 7 9 10 10 13 12 9 10 9 11 10 11 5 12 10 14 7 7 6 6 5 11 16 13 14 18 17 16 13 12 11 10 11 12 11 11 12 10 9 10 11 11 11 9 9 9 9 11 11 10 10 9 8 5 4 4 2 2 3 3 3 2 1 3 2 1 2 2 6 8 5 4 5 4 3 5 5 5 5 4 4
5 8 7 6 7 7 9 10 11 12 13 11 3 8 10 12 11 8 11 13 12 7 7 6 9 13 12 14 14 14 18 15 14 15 13 12 12 11 13 12 11 9 8 10 11 10 11 9 10 9 9 10 11 8 9 9 8 8 8 7 5 5 4 3 3 3 2 2 2 2 3 3 3 4 9 9 6 5 7 7 5 6 5 5 5 5
7 8 7 8 9 9 9 11 12 12 11 10 7 5 6 10 10 7 12 17 13 7 8 9 16 13 15 15 13 15 15 11 9 13 13 12 12 11 11 11 9 10 10 10 9 9 9 10 10 8 8 8 7 7 9 7 9 10 9 8 6 6 6 5 5 4 3 2 1 0 2 3 3 2 2 9 12 8 7 8 9 7 5 5 6 7
7 8 8 10 9 11 11 11 12 13 9 8 4 3 9 8 6 5 13 18 13 8 7 19 17 10 12 15 14 11 14 12 13 14 14 12 13 12 11 9 8 9 8 10 9 9 9 9 8 8 8 7 7 8 7 7 8 7 8 8 7 7 6 6 7 6 5 4 3 2 4 5 3 2 2 1 9 13 11 9 8 6 6 7 6 6
9 5 10 10 12 12 12 11 11 9 8 7 7 8 9 12 10 4 9 14 12 3 11 20 12 6 9 11 11 11 12 14 11 13 13 12 11 10 10 11 9 9 8 8 9 9 9 9 9 8 7 6 7 7 7 7 7 5 7 6 6 6 7 6 7 8 6 6 5 5 4 2 3 3 3 1 2 3 9 10 7 7 8 7 5 4
10 10 13 13 12 11 12 11 12 8 8 4 7 12 13 14 9 4 16 12 6 3 10 16 5 2 5 12 13 11 9 11 9 11 12 11 11 10 11 10 8 8 7 7 8 8 8 8 8 7 7 7 7 7 6 5 6 6 6 6 5 5 6 7 8 8 7 6 6 7 6 6 3 3 2 1 1 3 4 2 9 6 7 7 4 3
6 9 14 15 13 12 13 11 9 8 7 5 7 8 14 13 9 4 22 10 8 9 8 13 12 3 1 9 9 8 10 11 9 10 10 9 9 10 9 8 8 7 7 7 7 7 9 8 7 6 6 5 5 4 4 4 5 6 5 5 6 6 6 6 7 7 6 6 6 6 6 6 4 5 4 4 5 4 4 5 5 11 8 1 6 9
8 11 13 15 14 12 10 11 10 8 6 7 5 8 8 7 8 6 9 11 6 8 8 11 9 9 4 5 11 12 12 10 8 8 8 8 8 9 9 9 8 6 6 7 7 9 8 6 6 6 5 4 4 3 3 4 4 5 5 5 5 4 4 4 4 5 6 6 6 7 7 6 6 6 4 7 6 3 3 4 5 2 6 6 1 7
12 10 12 15 13 11 11 8 8 9 7 4 7 10 4 7 7 3 2 3 7 14 8 5 9 6 3 5 12 15 13 8 9 8 7 7 8 9 11 10 9 8 7 7 7 8 7 7 6 5 6 4 4 3 4 4 4 4 5 4 5 6 5 5 6 5 5 6 7 6 6 7 6 6 6 6 6 6 7 5 5 6 2 6 8 7
9 12 10 12 12 11 7 8 12 10 9 6 8 7 6 8 3 3 4 7 4 11 10 9 11 5 3 8 10 8 10 10 9 9 8 8 9 8 10 11 10 8 7 7 7 6 7 7 6 6 5 5 5 5 5 6 5 5 5 4 5 6 5 5 6 7 7 7 7 7 7 7 7 7 7 7 7 6 7 7 7 5 5 2 3 6
5 13 8 9 11 8 8 9 12 11 6 6 12 10 6 8 1 1 1 1 3 7 8 12 12 9 4 10 14 13 11 15 12 8 7 8 8 9 9 10 9 8 7 6 7 7 7 6 6 6 8 7 6 5 4 4 3 2 3 3 4 4 3 4 4 5 6 6 5 6 7 8 9 9 8 8 8 7 8 7 7 7 7 6 4 3
10 10 10 3 8 9 8 9 9 11 7 7 6 6 5 9 1 1 1 2 3 4 4 8 8 11 4 5 6 2 11 16 16 15 13 12 9 8 7 8 9 9 8 7 7 6 6 6 7 7 8 6 5 4 4 3 3 4 4 6 5 5 4 3 4 5 5 4 4 5 5 6 6 7 6 7 8 8 8 8 8 7 6 6 6 5
10 9 9 7 5 12 11 7 8 13 7 10 5 2 6 2 2 2 1 2 4 7 4 5 8 5 2 2 4 11 16 13 9 13 14 13 11 9 9 8 9 8 9 7 5 5 5 5 5 6 5 3 3 2 1 4 5 5 4 6 6 6 5 6 5 3 4 4 3 3 4 4 4 5 4 6 7 7 7 7 8 9 8 7 6 6
6 4 11 10 5 7 5 10 5 11 5 11 9 5 3 3 4 4 2 2 1 2 9 9 5 4 1 2 3 9 10 12 12 11 11 12 11 9 9 10 9 8 8 7 5 5 4 4 4 3 3 2 3 4 4 5 6 5 5 4 5 5 5 5 5 4 5 4 4 4 5 3 3 4 4 6 6 7 6 6 7 7 8 8 9 9
5 9 8 11 4 6 7 8 6 3 4 5 3 6 6 3 3 4 3 3 4 4 6 11 7 3 2 1 4 11 13 13 12 11 10 10 9 7 8 9 10 9 8 5 5 4 3 3 3 4 3 3 3 3 3 3 3 3 5 5 6 5 5 5 6 5 6 6 6 6 6 6 4 4 6 6 7 8 8 7 7 7 9 8 8 8
13 5 1 10 4 11 11 5 5 6 2 3 2 2 4 8 3 3 4 3 0 1 2 7 2 3 6 4 10 10 12 12 12 12 11 10 10 10 9 8 8 8 7 5 4 3 3 4 4 4 3 2 2 2 1 2 2 4 5 5 6 5 5 5 5 5 5 5 5 6 6 6 6 5 5 5 4 6 7 8 8 9 8 8 8 8
6 7 5 8 9 14 18 5 4 4 5 5 5 7 8 4 2 2 1 3 5 2 3 1 6 5 5 5 8 13 13 12 11 12 12 11 10 10 8 6 7 5 4 4 3 3 3 3 3 3 2 2 2 2 3 5 5 6 6 7 7 6 5 5 4 5 6 6 5 6 8 8 7 6 6 6 4 5 6 7 8 8 9 10 10 9
6 5 7 9 14 2 5 2 4 5 3 2 9 6 1 4 2 5 4 1 3 3 2 3 9 9 8 5 3 12 14 12 11 11 11 10 9 8 7 6 5 5 4 5 4 4 3 3 4 3 3 3 3 4 6 6 5 6 6 5 4 4 5 6 5 5 7 7 7 7 9 8 8 7 7 6 6 6 6 6 6 7 8 10 10 10
3 2 7 9 12 7 8 7 9 10 8 6 8 6 7 5 10 2 3 4 4 4 3 3 9 6 4 7 9 13 15 14 13 12 11 11 10 8 7 6 6 6 4 5 6 5 3 4 4 4 4 4 5 6 7 9 8 7 5 4 4 4 5 5 6 7 7 7 6 6 7 7 8 7 7 8 8 8 8 8 8 9 9 9 10 11
4 3 2 7 13 8 6 9 10 9 10 7 2 5 7 3 2 3 4 4 8 3 5 3 7 4 5 8 13 12 11 13 13 11 11 11 10 9 8 7 7 5 4 4 4 6 7 6 6 6 6 6 6 7 8 7 6 7 6 7 8 8 7 6 7 8 9 7 8 8 7 7 7 7 8 8 8 8 9 9 9 10 11 11 9 10
3 3 1 4 12 10 8 7 8 6 7 4 3 2 4 3 1 4 0 4 6 4 6 6 4 3 2 10 17 15 14 15 14 12 11 10 10 9 8 7 6 5 4 4 6 6 6 7 8 7 6 5 6 7 7 5 5 4 6 7 8 7 8 6 7 7 8 8 8 8 8 9 8 9 9 9 8 8 8 10 10 11 11 10 11 11
2 4 8 5 8 8 3 6 5 8 5 3 4 5 7 9 4 5 6 2 2 4 4 6 3 1 1 4 1 13 13 13 13 15 12 12 11 9 8 6 5 4 3 5 6 7 7 7 6 5 6 6 6 6 6 6 6 5 5 6 7 8 8 6 7 8 8 7 7 7 8 9 9 9 9 9 9 10 10 11 11 11 11 12 11 12
5 3 3 4 3 5 8 8 6 4 5 7 4 5 5 5 5 3 5 3 2 1 8 5 8 2 2 3 2 13 12 12 14 14 13 11 11 10 8 7 6 6 7 8 7 7 6 5 4 5 6 6 6 6 5 4 5 5 5 6 6 8 8 6 6 7 6 6 7 8 8 9 9 9 9 9 9 10 11 11 10 10 12 11 11 11
7 2 5 3 2 4 12 6 11 7 4 6 9 4 4 6 8 7 4 3 2 2 7 3 4 0 2 5 6 14 13 14 12 13 14 11 9 10 9 8 8 7 8 8 7 6 6 6 6 6 5 5 6 5 5 4 4 5 5 5 6 8 8 8 5 6 6 6 7 7 7 8 7 8 8 9 10 11 10 10 9 10 11 11 10 11
5 1 7 3 1 1 1 0 4 7 7 5 2 2 3 3 5 2 2 1 2 2 12 7 6 3 0 4 11 16 16 15 14 12 13 14 9 9 9 8 8 8 8 8 7 7 7 7 6 5 5 4 5 5 5 5 5 5 5 5 6 7 7 7 6 6 6 6 6 7 8 8 9 10 10 10 9 10 10 9 9 8 10 10 10 9
3 3 5 4 6 8 8 8 6 6 9 1 2 5 5 5 5 2 4 1 5 1 11 7 4 2 5 11 12 14 15 14 12 12 9 11 11 10 8 9 9 8 8 8 7 7 6 5 5 4 4 4 5 6 5 5 6 6 6 6 5 6 7 7 6 6 6 6 7 8 9 9 10 11 12 12 12 11 10 9 9 8 8 9 9 9
2 2 4 4 7 6 4 2 1 6 4 10 6 7 5 5 4 3 3 4 5 4 4 3 18 15 15 13 15 13 15 17 13 13 13 11 10 10 9 9 8 8 8 7 5 5 5 5 5 4 3 4 5 4 5 6 6 6 6 7 6 6 7 6 6 5 6 6 7 7 8 9 9 9 10 11 11 11 11 11 11 10 9 8 8 9
2 2 5 5 4 3 2 4 6 2 8 7 5 6 7 6 7 7 6 3 6 9 3 0 20 22 15 15 15 15 14 15 13 13 12 11 11 10 10 10 11 9 8 6 6 6 5 4 4 4 3 4 6 6 6 6 6 6 6 7 6 7 7 6 5 5 6 6 6 6 6 6 6 7 8 8 9 10 11 11 11 12 11 10 9 9
5 2 2 5 4 6 6 8 8 8 3 7 14 8 7 4 8 12 3 10 10 6 8 11 14 19 14 15 15 15 15 14 13 13 12 12 12 12 12 11 9 9 8 7 6 5 4 4 3 2 4 6 6 7 7 7 7 7 7 7 6 7 8 7 7 7 6 6 6 6 6 5 5 5 6 7 8 9 10 10 10 11 11 11 11 9
5 2 0 3 3 4 5 8 9 6 10 16 8 8 8 1 5 9 5 1 6 7 16 18 10 13 12 13 13 13 11 12 11 12 12 12 13 12 12 10 11 10 8 7 5 4 3 3 3 3 2 4 4 6 8 8 7 7 6 6 6 7 7 7 8 8 8 9 8 7 7 8 6 6 6 7 8 9 8 8 8 9 9 10 10 11
6 1 5 1 2 2 8 10 12 10 8 8 12 15 13 13 16 14 15 17 22 18 18 17 15 12 4 9 12 10 8 9 12 13 13 12 12 12 12 12 11 10 9 7 5 3 3 4 4 5 8 7 6 8 7 7 7 6 6 6 6 6 7 7 8 8 8 9 8 7 6 7 8 7 7 6 6 7 8 9 7 8 8 9 10 10
6 2 3 3 3 1 5 7 6 6 9 12 13 13 12 9 9 3 9 3 13 13 18 17 13 7 7 9 9 9 9 12 13 12 11 10 10 13 13 11 10 9 9 7 5 3 5 4 6 6 6 7 7 7 7 7 6 6 6 6 5 6 6 6 6 8 9 9 9 9 8 6 6 8 8 7 6 6 7 7 8 8 8 9 10 10
2 5 3 3 6 2 2 6 5 3 2 5 5 4 5 6 7 11 12 10 12 25 17 13 12 10 14 12 13 10 10 10 9 10 10 9 11 13 12 11 10 9 8 7 5 5 4 5 6 7 6 6 6 6 6 7 6 6 5 6 5 5 5 5 6 7 9 8 8 9 9 9 7 8 11 11 9 6 5 7 7 8 7 9 9 9
5 7 3 2 5 1 7 2 3 4 1 0 3 5 2 3 9 14 5 5 5 4 2 3 15 16 15 14 15 14 12 10 7 5 7 11 12 12 12 11 11 9 8 7 5 5 5 6 7 6 6 5 5 4 5 5 6 5 5 6 6 5 5 5 6 7 7 8 8 8 9 10 10 9 10 11 11 10 9 7 8 7 5 5 7 9
9 7 3 3 5 1 2 3 6 4 2 1 5 7 10 13 18 18 11 9 5 11 18 19 17 17 14 12 13 11 9 8 7 10 10 10 10 11 12 10 9 9 9 7 6 6 6 6 5 6 6 5 5 5 6 7 6 5 6 5 5 5 6 6 7 6 6 8 9 9 8 9 9 9 9 10 11 11 11 10 9 9 7 6 7 9
7 9 4 4 4 3 4 2 4 2 2 2 3 5 7 10 10 18 14 9 6 10 17 16 14 14 15 14 12 10 11 10 9 7 8 9 11 11 9 10 10 9 8 7 6 5 6 6 6 5 5 4 6 6 5 5 5 6 5 4 4 5 6 6 6 6 6 7 7 7 6 7 7 7 7 9 10 11 11 11 11 11 9 7 6 7
4 7 7 4 2 5 2 4 2 1 0 2 3 4 3 3 3 2 8 4 7 6 13 16 13 12 14 13 13 12 11 11 9 6 5 9 8 8 10 10 11 10 7 6 6 5 4 4 5 5 5 6 6 6 5 5 5 5 6 6 5 5 4 5 5 6 6 6 5 5 5 4 5 6 6 8 10 11 11 10 11 10 9 9 7 7
10 2 4 9 1 5 7 4 2 2 6 8 6 2 2 3 11 5 8 4 6 7 10 15 16 14 15 15 15 14 13 14 10 4 3 10 12 12 11 11 9 8 7 5 4 5 5 5 5 5 6 6 6 6 5 5 6 6 6 5 5 5 5 6 5 6 6 4 5 5 5 5 5 5 6 7 10 10 9 9 9 10 9 10 10 9
9 8 5 9 4 4 5 5 2 2 2 3 9 2 3 7 9 4 8 1 5 12 10 14 15 15 16 18 16 15 13 12 9 6 5 9 11 10 11 10 9 7 5 5 5 5 5 5 6 6 7 7 6 5 5 6 6 6 5 5 5 5 4 5 5 5 5 5 4 4 4 5 6 6 6 8 7 7 8 8 8 7 7 8 8 9
10 3 3 8 6 3 6 3 3 1 2 4 7 4 6 7 3 4 2 6 11 13 13 15 17 16 15 14 15 13 14 15 13 9 7 9 10 10 10 9 8 6 5 5 5 6 7 6 7 7 7 7 5 5 5 5 6 5 5 4 5 6 5 3 3 4 4 6 5 4 4 4 5 6 6 6 7 6 6 4 4 6 6 6 6 6
1 2 4 6 5 4 6 1 1 0 2 4 5 5 6 3 4 5 7 4 14 14 14 14 15 15 15 14 11 10 1 3 9 10 10 11 12 10 10 8 7 7 7 5 5 5 6 5 7 7 7 7 6 5 5 6 6 5 4 4 5 5 5 5 3 4 4 5 5 4 3 4 6 7 5 5 7 5 5 4 4 4 5 5 6 6
1 1 2 5 5 4 3 5 1 0 2 0 4 4 4 6 2 7 2 6 16 16 13 13 14 13 13 13 8 4 9 11 10 10 11 9 9 10 9 7 6 6 4 5 7 7 6 7 7 7 7 7 7 5 5 5 6 5 4 4 5 4 5 5 3 4 4 4 5 4 3 4 5 6 6 5 6 7 6 5 5 4 4 6 6 8
3 3 2 3 1 3 2 4 2 3 3 3 4 3 1 3 2 3 9 10 12 15 15 12 11 11 12 10 7 11 15 13 13 12 9 8 10 9 8 10 9 7 6 5 6 6 8 7 7 6 5 5 6 5 4 5 5 4 4 6 5 4 5 5 5 4 5 4 4 4 3 4 6 5 4 5 5 6 6 5 6 6 5 5 6 8
2 3 1 1 1 5 3 3 2 3 7 5 4 4 1 2 7 9 13 12 10 12 13 11 11 11 9 8 12 14 15 14 11 9 9 9 9 7 8 9 9 7 5 4 6 7 8 7 6 6 5 5 5 6 4 4 4 3 4 4 3 4 4 6 6 5 5 4 5 5 4 4 5 5 5 5 5 5 6 6 6 6 7 6 7 7
5 2 3 7 1 1 3 2 0 4 7 5 8 6 7 10 8 8 10 13 15 11 10 10 13 11 10 13 14 15 13 11 12 11 11 9 10 10 10 9 9 9 6 4 7 8 7 7 7 6 6 5 6 5 5 3 4 4 5 1 2 3 4 5 6 5 5 4 3 4 4 5 4 4 5 4 4 4 5 5 5 7 6 6 7 7
1 6 8 10 3 8 8 5 7 7 8 8 7 10 12 10 8 9 12 12 8 11 11 11 12 13 13 14 15 12 13 13 12 11 9 8 10 8 8 9 7 5 5 7 9 9 8 7 6 6 6 4 5 5 5 3 4 5 3 3 4 4 5 4 6 5 5 5 4 3 4 5 4 4 5 5 4 4 4 6 6 6 6 6 6 6
4 1 2 7 5 6 3 2 9 10 7 8 9 8 9 9 10 9 8 8 11 11 12 12 13 14 13 13 14 14 13 13 13 11 9 11 10 8 7 6 7 8 9 10 10 9 8 6 7 6 6 6 5 4 4 5 4 5 5 5 5 6 6 5 4 5 5 5 5 4 4 6 4 4 4 4 4 5 4 6 6 6 6 6 6 6
2 4 11 5 4 4 6 5 9 10 10 8 9 9 9 11 10 7 8 9 10 11 13 14 13 12 11 11 11 14 14 11 11 11 12 11 9 6 6 6 7 8 7 8 8 9 7 7 7 7 6 6 4 4 4 3 5 6 5 5 4 4 6 7 6 5 4 4 5 5 4 4 4 4 3 3 5 6 6 6 6 6 6 5 6 6
6 2 4 3 5 7 9 8 11 11 10 8 7 5 6 8 11 13 13 13 13 15 15 13 11 12 11 13 13 13 13 10 9 12 12 10 7 6 7 8 7 7 9 9 7 8 7 7 7 6 6 5 4 3 4 5 4 4 5 4 4 5 6 5 5 5 5 5 6 7 4 4 4 3 3 4 4 4 3 3 5 6 4 1 2 4
6 6 8 11 9 7 7 10 12 10 7 7 7 9 10 11 12 13 12 13 13 13 13 13 10 8 11 12 13 12 11 11 12 11 10 7 7 9 9 8 8 10 9 8 8 8 7 7 7 6 6 5 4 4 4 5 5 5 4 4 3 4 5 5 4 5 5 5 6 7 6 5 6 4 3 3 3 5 4 5 4 4 6 2 1 2
5 11 8 8 9 8 5 9 4 6 9 7 11 12 13 11 12 12 12 12 12 11 11 12 12 13 13 11 8 8 11 12 12 9 8 9 10 9 8 9 9 9 9 8 8 7 6 6 5 6 6 5 5 4 4 4 3 5 4 4 4 5 4 3 5 5 6 6 5 8 6 3 6 4 5 3 3 4 4 2 5 8 5 6 4 2
Wind_Direction
128 198 187 202 193 202 217 231 238 237 238 223 182 188 212 224 247 226 174 179 184 159 189 166 139 129 54 71 86 78 98 102 104 98 94 94 88 84 88 86 87 82 80 70 63 59 60 58 55 55 55 59 56 42 39 47 47 44 43 47 44 12 37 62 38 27 32 66 94 97 270 245 219 137 163 221 262 321 297 217 236 252 233 219 220 226
154 191 220 199 217 210 215 230 241 253 251 255 263 202 209 215 235 223 175 177 184 146 176 167 114 75 87 76 85 86 81 91 95 97 91 92 92 90 91 89 81 86 77 63 56 52 55 52 51 50 51 49 56 39 46 47 45 41 40 36 23 9 21 35 39 18 26 81 156 165 206 226 209 190 163 169 192 217 256 266 231 226 208 220 233 226
210 205 204 210 208 227 230 222 239 239 250 259 249 278 268 231 229 236 172 175 184 132 174 134 95 85 85 95 77 87 90 83 87 92 97 92 88 88 86 85 85 77 75 70 65 60 55 54 53 53 53 51 54 50 47 39 44 39 33 26 16 14 14 9 12 21 17 7 28 68 284 273 291 287 220 138 175 185 202 240 256 238 214 214 226 226
199 225 204 204 212 219 233 232 226 243 245 241 266 244 247 252 209 238 170 170 174 162 149 106 101 103 96 83 90 78 93 92 81 80 80 77 81 80 82 83 83 76 75 74 72 66 58 54 51 53 53 46 49 45 44 40 42 39 34 22 16 13 15 14 12 9 353 346 319 260 215 243 214 239 267 245 153 168 179 204 241 259 247 229 228 218
196 179 202 212 214 213 225 229 230 226 240 246 226 234 253 257 234 166 165 158 170 111 120 108 96 96 110 108 98 98 96 96 97 92 88 87 84 84 79 71 71 78 75 78 76 73 65 58 50 49 49 47 46 43 41 37 37 35 38 20 18 26 22 11 18 7 3 3 358 346 344 328 339 336 344 339 318 191 165 161 202 232 251 264 253 238
200 197 184 215 222 217 221 230 232 200 232 255 237 229 240 257 270 175 156 149 159 80 141 119 77 92 123 113 121 131 118 108 112 104 101 99 99 88 81 79 75 73 73 81 84 85 82 74 63 53 49 46 43 44 35 42 42 35 36 28 28 32 28 19 15 9 12 15 6 1 4 353 344 328 326 323 259 306 319 181 154 204 247 262 282 280
217 194 184 199 213 216 218 229 230 206 215 224 247 231 241 253 279 327 166 137 163 149 175 138 131 194 356 130 133 120 109 111 117 105 107 104 98 97 94 96 90 89 89 82 86 88 78 73 75 65 63 50 54 46 39 34 39 37 33 35 31 31 28 22 17 8 10 13 12 11 7 356 341 342 327 327 323 317 269 247 205 149 192 234 287 272
218 212 191 192 206 215 214 220 228 211 202 244 253 247 248 253 270 294 175 149 171 132 161 143 136 142 169 188 139 130 117 119 104 100 103 111 110 102 103 103 100 94 89 90 85 82 84 90 82 80 70 66 64 66 42 46 32 30 23 32 38 35 37 23 15 14 17 17 11 12 14 10 9 3 330 316 312 299 285 317 341 48 141 141 243 306
198 219 199 187 198 212 218 207 222 216 210 221 249 260 253 242 246 272 230 200 136 131 176 153 109 92 189 175 150 136 126 133 131 123 125 120 113 113 111 107 101 96 85 82 82 82 84 78 82 85 67 53 56 46 45 36 30 20 11 19 36 30 21 15 14 15 19 24 20 16 14 8 11 360 352 350 350 357 351 349 327 316 305 141 194 220
189 225 199 196 186 210 211 199 221 215 221 214 262 261 263 259 235 199 195 224 147 129 181 190 157 127 173 156 155 152 131 148 146 142 134 132 127 122 115 112 107 98 91 83 75 75 73 74 73 64 72 55 40 38 37 33 25 22 10 18 51 37 20 18 18 13 19 22 19 22 14 18 8 3 1 359 359 4 1 2 350 331 330 330 167 198
202 202 221 202 193 194 197 216 214 222 219 146 226 254 277 265 234 254 109 149 73 181 203 195 182 157 138 193 165 168 190 160 145 139 136 126 121 119 121 121 118 109 101 91 79 65 60 64 68 66 57 45 34 32 34 28 17 360 2 24 60 40 45 32 29 31 30 24 28 24 21 20 13 11 6 1 358 357 1 359 350 349 342 332 305 218
232 187 215 198 184 183 190 211 212 226 211 172 213 219 276 317 313 47 355 64 182 272 234 171 176 160 151 196 210 59 103 136 141 145 143 135 135 136 132 124 119 113 101 87 77 65 61 56 59 62 57 42 30 28 26 4 347 359 16 37 43 21 20 19 29 47 37 35 26 29 27 27 21 16 12 1 354 356 353 353 342 338 339 338 333 320
242 203 197 228 206 184 184 217 200 220 207 198 208 172 154 261 137 282 143 194 215 210 222 161 125 139 53 302 145 133 130 138 129 133 138 137 134 131 124 117 111 106 100 93 86 81 66 59 60 65 63 46 12 348 14 25 23 20 43 49 47 23 16 24 20 50 45 33 37 40 30 30 18 16 14 2 2 0 359 353 347 339 335 334 337 338
255 265 195 206 193 202 177 196 176 214 198 183 194 176 152 163 195 210 239 159 301 215 164 187 101 89 215 15 98 115 116 119 121 122 125 127 128 125 118 106 100 98 91 92 90 81 78 79 74 73 79 71 31 25 34 40 29 23 21 24 41 21 27 25 15 16 20 15 28 33 19 15 24 17 14 10 7 1 357 351 346 343 342 345 345 345
191 230 243 179 216 171 219 204 169 159 151 193 186 159 163 168 164 186 158 167 193 232 179 190 99 219 104 194 87 109 113 114 115 115 110 113 117 115 103 95 95 93 88 83 82 86 100 101 79 70 68 67 47 39 44 46 47 28 19 27 44 35 18 19 12 10 35 35 36 31 25 20 10 13 28 23 15 5 356 351 350 355 359 356 348 348
210 234 203 184 192 167 225 188 167 154 162 219 180 130 202 231 140 145 194 132 253 136 163 21 106 24 84 100 99 104 110 109 117 116 112 98 84 83 82 80 82 87 88 92 100 100 105 113 112 101 96 96 84 59 48 43 35 35 35 35 37 24 19 21 19 29 34 32 36 31 25 14 21 28 41 32 28 15 358 358 2 1 355 350 344 342
175 220 218 195 232 190 196 169 206 127 177 214 205 210 215 197 138 167 174 136 90 72 39 207 76 85 95 29 110 117 108 110 111 107 101 93 83 79 83 82 93 94 112 123 130 134 114 119 125 126 120 88 86 68 44 46 51 53 42 34 31 20 13 6 19 40 35 30 30 29 29 24 24 27 26 19 20 22 19 10 5 2 358 355 354 348
134 225 225 187 199 211 165 154 252 225 184 156 198 230 254 241 135 126 184 184 138 158 160 182 147 150 157 149 173 125 125 129 119 107 100 95 91 87 86 97 113 130 141 137 118 102 93 86 96 100 102 90 57 56 57 49 43 46 51 43 35 20 13 9 24 35 37 35 33 32 31 29 23 18 17 16 21 21 19 19 15 9 9 3 357 355
163 167 218 180 177 184 164 176 246 257 234 174 207 159 190 182 239 258 101 165 158 174 120 104 146 154 177 139 158 153 146 142 128 120 118 120 123 126 133 141 147 145 143 129 132 135 120 92 81 78 73 56 50 48 53 46 36 37 30 15 14 19 14 23 36 40 33 37 39 33 32 26 16 16 22 25 30 23 19 18 18 19 15 9 6 1
149 137 295 175 178 176 178 166 213 221 257 241 358 251 180 120 163 110 196 169 131 197 99 147 164 207 191 156 164 158 155 134 128 135 133 133 136 142 142 148 150 152 145 149 131 107 97 82 72 63 56 58 60 58 52 46 38 35 29 23 20 14 10 27 42 46 37 33 34 29 23 17 14 18 27 30 31 26 27 20 18 21 22 14 10 5
188 125 226 224 173 153 218 182 199 176 203 250 230 261 211 194 179 111 270 175 161 161 150 138 191 227 280 166 170 166 155 142 141 135 132 131 135 140 138 137 141 142 144 127 110 106 96 87 76 61 50 47 53 63 59 47 36 36 36 29 25 21 14 23 42 46 46 40 34 32 24 18 18 26 28 27 26 30 29 26 21 27 25 13 16 10
106 133 183 299 171 176 199 154 182 173 180 196 161 198 194 170 168 210 277 263 157 133 157 127 198 182 273 24 165 150 139 138 137 130 132 140 141 136 128 129 136 130 113 100 98 90 86 87 86 75 56 46 51 57 67 51 40 34 41 34 26 20 18 22 34 49 47 40 35 30 24 24 27 29 28 25 23 33 34 30 24 24 26 22 16 14
143 169 113 229 221 194 190 167 191 173 188 232 186 231 182 169 150 134 194 267 223 187 98 131 118 141 310 336 290 137 139 132 132 133 131 130 128 128 128 124 113 110 99 91 84 79 77 83 92 97 86 68 58 58 58 56 53 44 36 38 29 25 12 17 40 52 47 42 39 34 32 31 29 27 25 26 25 38 38 32 25 25 29 25 18 17
124 98 145 227 262 189 184 181 178 187 230 254 261 269 163 195 192 173 150 190 158 152 87 45 79 169 343 344 113 118 114 118 122 127 124 124 130 128 128 128 119 99 89 78 71 70 69 67 63 58 60 69 63 60 52 48 52 46 41 39 35 25 9 10 33 52 44 40 42 41 38 36 30 28 28 31 31 37 39 33 28 28 34 29 21 20
182 248 117 128 172 43 144 86 190 189 196 217 240 260 230 170 161 157 172 328 256 254 143 124 158 159 239 72 108 115 118 121 126 128 132 129 131 131 130 122 110 99 87 81 78 74 67 64 61 57 57 62 69 62 55 48 45 45 40 40 40 26 13 20 35 50 41 38 43 38 35 31 28 27 26 32 33 34 34 31 28 31 36 32 27 23
122 190 108 141 169 172 189 192 213 202 203 263 234 260 244 222 185 126 239 245 215 13 114 110 83 53 89 117 111 117 121 120 126 130 126 126 131 131 120 110 104 102 95 86 81 76 79 78 71 64 58 67 73 70 61 54 45 41 38 33 42 37 21 22 35 45 41 37 43 41 36 32 33 33 30 27 25 25 25 25 24 28 35 34 31 26
122 150 118 142 155 180 200 210 219 151 156 204 216 225 241 243 225 161 140 109 193 129 62 176 141 140 136 141 135 135 132 131 137 136 134 133 131 125 123 116 110 109 106 104 100 95 84 73 76 75 66 72 76 75 65 60 51 43 37 31 32 34 28 26 41 41 42 41 48 46 43 41 41 40 40 32 27 23 21 20 18 20 23 27 29 30
77 95 184 133 151 159 134 35 336 258 190 191 201 223 244 220 227 231 187 207 157 89 359 264 147 136 153 147 143 141 137 136 142 143 138 135 130 128 120 116 115 112 110 107 100 94 94 100 86 76 66 78 90 78 68 56 55 47 39 34 32 34 27 23 31 36 45 49 47 45 42 44 44 47 47 45 38 32 27 23 21 20 16 17 22 26
131 115 250 142 199 100 77 37 15 9 310 205 196 205 219 191 202 204 146 163 147 161 173 171 159 133 150 146 143 141 143 143 144 138 132 130 126 124 125 125 120 112 105 102 104 102 105 105 107 83 70 82 92 86 74 60 47 41 34 32 38 41 28 22 27 30 38 41 42 38 37 38 44 44 43 43 45 38 33 28 24 21 19 19 20 18
91 163 128 153 200 133 83 60 34 29 42 37 24 14 2 5 115 107 40 16 140 133 135 148 135 120 133 137 133 134 134 132 127 125 123 129 133 134 131 119 113 109 103 98 95 99 113 99 72 64 56 28 72 80 73 64 50 43 39 32 37 44 31 32 36 40 37 37 32 29 32 36 38 37 37 40 39 37 33 29 26 25 25 23 21 20
102 279 168 106 67 73 83 70 65 65 78 62 31 28 34 65 66 82 100 92 84 87 106 109 113 110 95 119 122 120 118 120 124 128 136 142 143 131 119 115 111 110 108 104 100 108 77 63 44 52 63 71 67 69 71 66 54 41 39 35 43 51 41 42 45 44 40 37 28 25 32 44 43 34 34 36 39 36 32 26 23 24 29 28 24 22
104 315 28 80 82 357 70 80 89 93 87 68 34 18 15 21 70 358 105 160 112 129 124 118 120 138 146 133 119 117 125 132 134 136 138 142 126 117 117 117 115 114 114 112 115 94 66 60 50 58 77 74 65 65 68 64 53 47 46 38 46 54 52 49 52 52 46 38 30 25 25 29 39 38 32 29 32 34 31 25 23 25 29 30 28 26
99 119 70 59 97 14 25 98 90 62 27 24 5 358 348 51 82 70 51 47 125 133 128 151 182 149 145 142 134 136 137 137 132 139 129 109 120 122 120 117 117 116 109 110 103 89 80 70 71 68 65 61 63 67 69 73 62 54 54 51 44 52 49 49 52 59 56 44 34 32 29 26 28 36 37 29 21 16 20 22 22 23 25 33 32 29
85 99 98 98 110 310 327 10 49 49 189 217 277 285 222 132 104 85 49 48 45 35 154 139 137 137 140 146 144 150 147 143 133 108 112 124 127 117 111 111 113 112 108 103 99 91 76 74 74 71 70 70 69 72 77 74 74 58 61 63 52 53 44 46 48 61 61 52 42 35 32 27 29 36 39 31 23 18 14 9 13 11 12 25 31 33
105 89 82 80 88 151 356 2 75 206 204 276 325 47 83 104 96 92 84 64 64 103 106 110 124 134 142 139 137 135 126 110 105 114 114 108 106 109 116 119 111 106 108 106 97 86 83 85 81 78 71 61 60 61 67 59 57 53 51 56 60 55 51 43 50 56 60 57 51 45 38 37 40 45 44 36 28 23 19 14 7 5 2 18 30 28
116 101 119 47 101 54 47 10 177 203 271 59 61 78 96 95 107 89 72 59 60 105 117 116 128 132 135 137 133 126 118 112 95 79 98 105 114 124 128 115 116 113 107 110 104 96 95 98 101 98 98 86 64 56 65 75 68 64 49 43 55 61 65 60 57 61 65 61 59 57 49 47 46 49 51 42 34 30 24 18 11 7 1 11 29 32
84 105 94 104 90 121 115 50 83 27 165 165 144 173 166 141 257 238 112 73 117 125 119 127 133 139 136 133 126 122 117 105 96 83 89 117 110 101 106 110 110 112 113 110 112 110 113 115 107 102 95 89 78 64 59 68 72 67 53 42 33 47 57 64 56 60 69 72 64 62 56 50 53 55 53 46 40 35 28 21 15 14 10 14 17 25
17 102 165 105 7 118 125 117 99 180 196 211 230 224 66 103 113 129 97 104 132 135 140 136 144 144 134 129 129 128 124 116 128 135 103 112 107 105 99 100 101 101 108 116 115 122 118 97 87 88 95 94 89 80 65 66 73 68 60 43 28 40 49 62 58 63 74 78 65 54 48 47 59 64 58 52 46 40 33 26 22 21 16 22 16 16
46 30 87 115 125 89 93 121 180 191 256 176 214 207 143 124 123 130 72 117 167 146 155 141 140 145 143 141 140 139 139 144 154 156 151 119 115 110 105 102 111 128 133 133 127 117 116 120 110 95 80 76 77 81 84 73 73 74 63 45 30 36 52 80 78 79 83 90 86 66 58 56 55 71 74 59 50 44 38 32 30 23 21 25 22 17
46 348 50 89 128 151 144 112 153 210 242 230 179 164 157 148 122 59 135 230 169 157 152 148 148 150 150 147 146 152 157 153 161 164 148 124 112 111 121 137 151 153 146 137 137 127 115 106 89 81 85 81 75 71 72 77 77 76 68 43 39 40 39 39 90 92 86 87 92 81 63 55 56 63 80 73 56 42 37 32 33 30 30 23 23 18
350 302 64 131 122 85 96 125 77 296 283 145 160 152 162 135 72 113 196 225 153 149 149 152 149 151 151 150 156 152 106 76 124 133 133 130 130 138 143 155 155 145 141 144 145 115 97 97 106 111 108 99 83 68 65 72 77 73 62 53 49 37 27 26 43 68 73 96 98 90 70 55 69 71 75 84 68 50 34 28 33 26 33 28 17 15
41 73 359 67 71 116 134 101 160 152 250 102 188 177 159 101 140 208 248 131 139 140 144 151 152 153 152 149 142 117 120 127 129 129 138 137 131 138 146 137 116 104 112 127 120 107 104 98 95 93 97 102 94 81 69 78 82 84 74 60 52 47 36 30 23 59 63 72 102 106 74 60 62 73 87 90 73 56 35 16 21 26 29 30 26 20
198 105 190 122 146 51 48 89 93 149 231 195 134 45 41 152 230 145 114 108 124 133 143 150 147 146 145 149 129 132 134 138 140 144 139 127 126 131 125 114 109 114 120 119 117 112 105 95 91 92 100 104 104 93 81 81 83 94 96 84 73 70 47 35 37 27 51 54 67 102 99 69 71 71 74 81 82 69 47 26 23 16 21 27 28 24
225 114 142 3 197 131 152 159 188 231 160 187 153 175 163 136 149 137 125 125 132 140 147 145 143 149 149 134 136 139 138 140 142 136 127 118 125 122 119 125 131 140 165 165 139 123 108 107 108 103 92 91 99 102 92 90 82 71 80 99 110 89 69 59 46 37 38 52 59 61 79 74 72 72 72 81 84 77 63 40 30 25 21 24 30 27
295 174 183 143 269 161 168 182 231 57 79 81 102 113 103 106 118 120 122 133 142 149 142 142 149 151 141 139 136 139 138 146 143 141 137 135 131 135 139 143 152 164 173 157 125 115 111 116 112 105 100 98 99 108 103 100 90 58 68 82 112 100 110 82 66 41 31 25 42 59 70 83 78 73 67 71 88 85 68 52 43 37 18 27 34 33
334 105 101 91 82 92 61 80 104 78 79 71 76 109 114 107 101 116 125 131 138 138 147 149 149 138 139 139 137 142 141 139 136 140 143 135 135 143 147 149 154 161 143 117 106 105 106 103 99 98 94 80 94 106 111 99 100 79 60 34 22 48 89 90 77 50 28 28 12 12 58 71 75 66 67 62 60 85 88 77 59 54 29 34 35 37
200 193 58 103 177 88 95 34 88 101 100 94 96 89 102 112 121 128 130 124 134 140 136 133 134 137 139 143 141 139 139 147 146 150 144 136 142 148 145 147 139 128 121 119 125 123 121 118 105 100 93 80 56 74 110 125 89 92 68 55 50 44 46 51 71 83 55 22 15 2 37 79 97 82 64 64 53 45 65 76 75 63 51 41 41 41
11 98 86 75 74 86 143 131 102 97 99 109 109 111 113 121 125 117 114 115 113 110 116 127 128 130 135 134 139 140 146 155 154 140 137 141 150 147 138 124 116 119 119 123 121 112 106 104 108 104 101 95 78 59 55 79 108 97 89 66 55 59 66 63 57 41 9 16 24 14 15 68 98 112 87 59 71 59 41 68 82 78 69 61 51 53
154 188 90 158 102 89 86 99 113 108 105 108 107 102 109 113 111 111 111 113 112 113 121 127 133 139 140 141 144 149 151 154 136 133 137 149 146 135 124 125 110 98 97 93 93 100 111 114 111 115 112 116 118 89 59 64 92 112 119 116 97 84 72 58 51 50 33 6 5 6 348 38 79 120 126 92 69 64 83 87 110 106 86 67 74 83
67 75 118 108 115 155 164 160 144 137 148 137 122 118 111 110 109 111 113 114 120 124 129 131 133 132 132 144 150 153 145 136 134 140 149 147 136 126 126 114 108 107 101 97 93 93 96 105 114 116 117 119 103 81 70 73 78 68 74 81 75 76 90 84 61 48 20 15 12 1 344 29 39 55 100 137 139 106 65 36 66 137 133 150 188 66
117 153 144 139 152 186 180 153 106 102 110 119 120 116 116 113 115 117 119 122 123 129 132 135 134 132 142 149 153 143 137 140 148 149 136 129 127 129 124 120 114 108 108 108 104 101 105 108 111 110 111 113 96 83 64 41 61 82 62 57 49 78 94 90 73 52 29 17 9 0 331 43 69 45 22 43 122 142 140 116 29 34 93 136 174 189